Location: Newark
(41.6500°N, 71.4833°W)
Time: 00:27:55
(UTC+00:00)

Transit 2A Rocket - Pass Details

Date: 03 February 2020
Orbit: 591 x 912 km, 66.7° (Epoch: 24 February)

Event Time Altitude Azimuth Distance (km) Brightness Sun altitude
Rises 18:15:04 0° 308° (NW) 3,133 8.0 29.3°
Reaches altitude 10° 18:18:37 10° 282° (WNW) 2,281 7.7 29.0°
Maximum altitude 18:21:00 13° 254° (WSW) 2,108 7.9 28.9°
Drops below altitude 10° 18:23:27 10° 227° (SW) 2,373 8.8 28.7°
Sets 18:27:19 0° 202° (SSW) 3,372 9.6 28.4°
